Home   Weather   Dera Ghazi Khan   Past weeks
Flag for Pakistan

Past Weather in Dera Ghazi Khan, Pakistan — Yesterday and Last 2 Weeks

Now
91 °F

Haze.


Feels Like: 91 °F
Forecast: 107 / 85 °F
Wind: 7 mph from Southeast

Location: Multan Airport

Current Time: May 27, 2019 at 12:23:26 am

Latest Report: May 27, 2019 at 12:00 am


Visibility: 2 mi

Pressure: 29.62 "Hg

Humidity: 36%

Dew Point: 61 °F

Location of Dera Ghazi KhanLocation

Past Weather in Dera Ghazi Khan — Graph

°F

Dera Ghazi Khan Temperature Yesterday

Maximum temperature yesterday: 102 °F (at 3:00 pm)
Minimum temperature yesterday: 79 °F (at 6:00 am)
Average temperature yesterday: 93 °F

High & Low Weather Summary for the Past Weeks

 TemperatureHumidityPressure
High104 °F (May 13, 1:30 pm)94% (May 17, 10:00 am)29.83 "Hg (May 17, 10:00 am)
Low72 °F (May 17, 10:00 am)21% (May 13, 1:30 pm)29.50 "Hg (May 13, 4:30 pm)
Average88 °F47%29.67 "Hg
* Reported May 11 11:00 pm — May 26 11:00 pm, Dera Ghazi Khan. Weather by CustomWeather, © 2019

Note: Actual official high and low records may vary slightly from our data, if they occured in-between our weather recording intervals... More about our weather records

Advertising

Dera Ghazi Khan Weather History for the Previous 24 Hours

Scroll right to see more
 ConditionsComfort  
Time TempWeatherWind HumidityBarometerVisibility
11:00 pm
Sun, May 26
93 °FHaze.5 mph36%29.62 "Hg2 mi
10:30 pm93 °FHaze.5 mph39%29.62 "Hg2 mi
10:00 pm93 °FHaze.No wind39%29.62 "Hg2 mi
9:30 pm95 °FHaze.No wind34%29.59 "Hg2 mi
9:00 pm95 °FHaze.No wind34%29.59 "Hg2 mi
8:30 pm97 °FHaze.No wind32%29.59 "Hg2 mi
8:00 pm97 °FHaze.No wind34%29.59 "Hg2 mi
7:30 pm99 °FHaze.No wind27%29.56 "Hg3 mi
7:00 pm99 °FHaze.5 mph29%29.56 "Hg3 mi
6:30 pm100 °FHaze.No wind25%29.56 "Hg3 mi
6:00 pm102 °FHaze.5 mph26%29.56 "Hg3 mi
5:30 pm102 °FHaze.7 mph26%29.56 "Hg3 mi
5:00 pm102 °FHaze.9 mph26%29.56 "Hg3 mi
4:30 pm102 °FHaze.7 mph27%29.56 "Hg3 mi
4:00 pm102 °FHaze.7 mph27%29.56 "Hg3 mi
3:30 pm102 °FHaze.7 mph27%29.59 "Hg3 mi
3:00 pm102 °FHaze.7 mph27%29.59 "Hg3 mi
2:30 pm100 °FHaze.9 mph27%29.59 "Hg3 mi
2:00 pm100 °FHaze.9 mph27%29.62 "Hg3 mi
1:30 pm99 °FHaze.7 mph31%29.62 "Hg3 mi
1:00 pm99 °FHaze.12 mph31%29.62 "Hg3 mi
12:30 pm99 °FHaze.12 mph31%29.65 "Hg3 mi
11:30 am97 °FHaze.7 mph34%29.65 "Hg3 mi
11:00 am97 °FHaze.9 mph34%29.65 "Hg3 mi
10:30 am95 °FHaze.5 mph36%29.65 "Hg3 mi
10:00 am93 °FHaze.5 mph41%29.65 "Hg3 mi
9:30 am91 °FHaze.No wind44%29.65 "Hg3 mi
9:00 am90 °FHaze.5 mph46%29.65 "Hg2 mi
8:30 am88 °FClear.No wind52%29.65 "Hg2 mi
8:00 am86 °FClear.No wind59%29.65 "Hg2 mi
7:30 am82 °FClear.5 mph62%29.65 "Hg2 mi
7:00 am81 °FClear.No wind70%29.65 "Hg2 mi
6:00 am79 °FClear.No wind70%29.62 "Hg2 mi
5:30 am81 °FClear.No wind66%29.62 "Hg2 mi
5:00 am82 °FClear.No wind62%29.59 "Hg2 mi
4:30 am82 °FClear.No wind62%29.59 "Hg2 mi
4:00 am84 °FClear.7 mph55%29.56 "Hg2 mi
3:00 am84 °FClear.5 mph55%29.56 "Hg2 mi
2:30 am86 °FClear.5 mph52%29.56 "Hg2 mi
2:00 am86 °FHaze.5 mph52%29.56 "Hg2 mi
1:30 am86 °FClear.5 mph52%29.59 "Hg2 mi
1:00 am88 °FHaze.7 mph46%29.59 "Hg2 mi
12:30 am88 °FHaze.5 mph46%29.59 "Hg2 mi
12:00 am88 °FHaze.5 mph46%29.59 "Hg2 mi
Weather by CustomWeather, © 2019

See weather overview